Regional Weather Roundup
Issued by NWS

Home | Current Version | Previous Version | Text Only | Print | Product List | Glossary On
Versions: 1 2 3 4 5 6 7 8 9 10 11 12 13 14 15 16 17 18 19 20 21 22 23 24 25 26 27 28 29 30 31 32 33 34 35 36 37 38 39 40 41 42 43 44 45 46 47 48 49 50
000
ASUS43 KFSD 162310
RWRSD

WEATHER ROUNDUP FOR SOUTH DAKOTA
NATIONAL WEATHER SERVICE SIOUX FALLS SD
500 PM CST TUE JAN 16 2018

NOTE: "FAIR" INDICATES FEW OR NO CLOUDS BELOW 12,000 FEET WITH NO
SIGNIFICANT WEATHER AND/OR OBSTRUCTIONS TO VISIBILITY.


SDZ001>005-009-010-012>017-170000-
NORTHWEST AND NORTH CENTRAL SOUTH DAKOTA

CITY           SKY/WX    TMP DP  RH WIND       PRES   REMARKS
FAITH            N/A     13   4  67 S16       30.34S WCI  -3
MOBRIDGE       PTCLDY    14  -1  51 S9        30.42F WCI   2
$$

SDZ012>016-024>037-041>051-057-063-072>074-170000-
SOUTHWEST AND SOUTH CENTRAL SOUTH DAKOTA

CITY           SKY/WX    TMP DP  RH WIND       PRES   REMARKS
RAPID CTY ARPT CLEAR     24   9  52 SE10      30.28F WCI  14
PIERRE         CLEAR     15   1  53 S13       30.48F WCI   1
CUSTER         CLEAR     31 -14  13 W8        30.21F WCI  23
ELLSWORTH AFB  CLEAR     26   8  45 S10       30.26F WCI  16
PHILIP         CLEAR     21   8  57 SE9       30.40F WCI  11
PINE RIDGE     CLEAR     24   6  46 S9        30.35F WCI  14
SPEARFISH        N/A     30   5  34 CALM      30.22F
WINNER         FAIR      17   3  54 S10       30.50F WCI   5
$$

SDZ004>011-016>023-039-040-170000-
NORTHEAST SOUTH DAKOTA

CITY           SKY/WX    TMP DP  RH WIND       PRES   REMARKS
ABERDEEN       CLEAR     11   0  61 S10       30.55F WCI  -3
WATERTOWN      PTCLDY     5  -1  76 SW10      30.52F WCI -10
SISSETON         N/A      9   0  67 SW9       30.56  WCI  -4
$$

SDZ017-020-022-023-036>040-048>070-170000-
SOUTHEAST SOUTH DAKOTA

CITY           SKY/WX    TMP DP  RH WIND       PRES   REMARKS
SIOUX FALLS    CLEAR      5  -1  76 W6        30.62F WCI  -6
HURON          CLEAR      8  -1  66 S8        30.59F WCI  -4
CHAMBERLAIN    CLEAR     14   3  61 SE10      30.54F WCI   1
MITCHELL       CLEAR      8  -1  66 S7        30.63F WCI  -3
YANKTON        CLEAR      9  -2  61 W3        30.65F
$$

ABBREVIATIONS USED IN REMARKS
   TC - TEMPERATURE IN CELSIUS
  WCI - WIND CHILL INDEX
   HX - HEAT INDEX
  VSB - VISIBILITY




USA.gov is the U.S. government's official web portal to all federal, state and local government web resources and services.